Weather History for Fallon NAS, NV

Change the Weather History Date:

Wednesday, February 29, 2012

  Actual Average Record
Temperature  
Mean Temperature 45 °F -  
Max Temperature 54 °F - 69 °F (2008)
Min Temperature 36 °F - 6 °F (1948)
Degree Days  
Heating Degree Days 20    
Moisture  
Dew Point 19 °F    
Average Humidity 38    
Maximum Humidity 50    
Minimum Humidity 22    
Precipitation  
Precipitation 0.00 in - - ()
Sea Level Pressure  
Sea Level Pressure 29.81 in    
Wind  
Wind Speed 21 mph (WSW)    
Max Wind Speed 36 mph    
Max Gust Speed 52 mph    
Visibility 10 miles    
Events      
Averages and records for this station are not official NWS values.
T = Trace of Precipitation, MM = Missing Value Source: NWS Daily Summary

Daily Weather History Graph

Daily Weather History Graph

Search for Another Location

Airport:

Trip Planner

Search our weather history database for the weather conditions in past years. The results will help you decide how hot, cold, wet, or windy it might be!

Date:

Astronomy

Feb. 29, 2012 Rise Set
Actual Time 6:28 AM PST 5:46 PM PST
Civil Twilight 6:01 AM PST 6:13 PM PST
Nautical Twilight 5:30 AM PST 6:44 PM PST
Astronomical Twilight 4:59 AM PST 7:15 PM PST
Moon 10:25 AM PST (2/29) 12:35 AM PST (2/29)
Length of Visible Light 12h 12m
Length of Day
11h 18m
Waxing Crescent, 48% of the Moon is Illuminated
Feb 29
Waxing Crescent
Feb 29
First Quarter
Mar 8
Full
Mar 14
Last Quarter
Mar 22
New

Hourly Weather History & Observations

Time (PST) Temp. Windchill Dew Point Humidity Pressure Visibility Wind Dir Wind Speed Gust Speed Precip Events Conditions
12:56 AM 41.0 °F 32.2 °F 18.0 °F 40% 29.79 in 10.0 mi SSW 18.4 mph 27.6 mph N/A   Clear
1:56 AM 42.1 °F 33.6 °F 17.1 °F 37% 29.77 in 10.0 mi South 18.4 mph 24.2 mph N/A   Clear
2:56 AM 44.1 °F 35.0 °F 15.1 °F 31% 29.75 in 10.0 mi SSW 24.2 mph 34.5 mph N/A   Clear
3:56 AM 44.1 °F 34.6 °F 16.0 °F 32% 29.75 in 10.0 mi SSW 26.5 mph 33.4 mph N/A   Partly Cloudy
4:56 AM 43.0 °F 34.5 °F 17.1 °F 35% 29.75 in 10.0 mi SSW 19.6 mph - N/A   Clear
5:56 AM 42.1 °F 32.3 °F 19.9 °F 41% 29.75 in 10.0 mi SW 24.2 mph 36.8 mph N/A   Partly Cloudy
6:18 AM 42.8 °F 32.9 °F 21.2 °F 42% 29.80 in 10.0 mi SW 26.5 mph 36.8 mph N/A   Mostly Cloudy
6:56 AM 42.1 °F 33.6 °F 21.9 °F 45% 29.75 in 10.0 mi SW 18.4 mph 32.2 mph N/A   Mostly Cloudy
7:56 AM 44.1 °F 35.9 °F 24.1 °F 45% 29.78 in 10.0 mi SSW 19.6 mph 27.6 mph N/A   Mostly Cloudy
8:56 AM 46.0 °F 39.0 °F 24.1 °F 42% 29.78 in 10.0 mi SSW 17.3 mph 25.3 mph N/A   Mostly Cloudy
9:56 AM 48.9 °F - 21.9 °F 35% 29.78 in 10.0 mi West 28.8 mph 35.7 mph N/A   Overcast
10:56 AM 53.1 °F - 19.9 °F 27% 29.78 in 10.0 mi WSW 28.8 mph 39.1 mph N/A   Overcast
11:56 AM 52.0 °F - 19.0 °F 27% 29.77 in 9.0 mi SW 35.7 mph 44.9 mph N/A   Overcast
12:56 PM 51.1 °F - 19.0 °F 28% 29.79 in 10.0 mi WSW 29.9 mph 39.1 mph N/A   Mostly Cloudy
1:56 PM 54.0 °F - 16.0 °F 22% 29.79 in 7.0 mi WSW 32.2 mph 51.8 mph N/A   Mostly Cloudy
2:56 PM 52.0 °F - 17.1 °F 25% 29.81 in 7.0 mi WSW 34.5 mph 43.7 mph N/A   Mostly Cloudy
3:56 PM 46.9 °F - 19.9 °F 34% 29.81 in 10.0 mi West 17.3 mph 32.2 mph N/A   Mostly Cloudy
4:56 PM 45.0 °F 36.4 °F 19.0 °F 36% 29.83 in 10.0 mi West 23.0 mph 36.8 mph N/A   Mostly Cloudy
5:56 PM 39.9 °F 32.5 °F 21.0 °F 47% 29.85 in 10.0 mi WNW 12.7 mph - N/A   Mostly Cloudy
6:56 PM 39.0 °F 29.6 °F 18.0 °F 43% 29.85 in 10.0 mi West 18.4 mph 27.6 mph N/A   Mostly Cloudy
7:56 PM 37.9 °F 30.0 °F 18.0 °F 45% 29.87 in 10.0 mi WNW 12.7 mph - N/A   Mostly Cloudy
8:56 PM 37.9 °F 32.1 °F 16.0 °F 41% 29.88 in 10.0 mi West 8.1 mph - N/A   Overcast
9:56 PM 37.9 °F 30.9 °F 19.0 °F 47% 29.89 in 10.0 mi NW 10.4 mph - N/A   Overcast
10:56 PM 36.0 °F 29.0 °F 17.1 °F 46% 29.90 in 10.0 mi West 9.2 mph - N/A   Mostly Cloudy
11:56 PM 36.0 °F 27.5 °F 19.0 °F 50% 29.91 in 10.0 mi NW 12.7 mph - N/A   Overcast